www.luftgeist.de
Wetterdaten: aktuell Dienstag, 02.03.2021 20:10
Datum Zeit Auentemp. Sonne (%) Auenfeuchte Luftdruck Regenmenge Wind Windichtung Windichtung Sonnenschein Taupunkt Windchill Windben
02.03.2021 20:10 4,3 C 0 % 85 % 1031,2 hPa 0,0 l/m 0,0 km/h (0 Bft) S-SW 202 0 min 2,0 C 4,3 C 0,0 km/h (0 Bft)
02.03.2021 20:05 4,4 C 0 % 85 % 1031,2 hPa 0,0 l/m 0,0 km/h (0 Bft) S-SW 202 0 min 2,1 C 4,4 C 0,0 km/h (0 Bft)
02.03.2021 20:00 4,4 C 0 % 85 % 1031,2 hPa 0,0 l/m 0,0 km/h (0 Bft) W 270 0 min 2,1 C 4,4 C 0,0 km/h (0 Bft)
02.03.2021 19:55 4,5 C 0 % 85 % 1031,2 hPa 0,0 l/m 0,0 km/h (0 Bft) W 270 0 min 2,2 C 4,5 C 0,0 km/h (0 Bft)
02.03.2021 19:50 4,6 C 0 % 84 % 1031,2 hPa 0,0 l/m 0,0 km/h (0 Bft) NW 315 0 min 2,1 C 4,6 C 0,0 km/h (0 Bft)
02.03.2021 19:45 4,9 C 0 % 84 % 1031,2 hPa 0,0 l/m 0,0 km/h (0 Bft) W-NW 292 0 min 2,4 C 4,9 C 0,0 km/h (0 Bft)
02.03.2021 19:40 5,1 C 0 % 84 % 1031,1 hPa 0,0 l/m 0,0 km/h (0 Bft) SW 225 0 min 2,6 C 5,1 C 0,0 km/h (0 Bft)
02.03.2021 19:35 5,1 C 0 % 84 % 1031,1 hPa 0,0 l/m 0,0 km/h (0 Bft) SW 225 0 min 2,6 C 5,1 C 0,0 km/h (0 Bft)
02.03.2021 19:30 5,2 C 0 % 84 % 1031,1 hPa 0,0 l/m 0,0 km/h (0 Bft) W-SW 247 0 min 2,7 C 5,2 C 0,0 km/h (0 Bft)
02.03.2021 19:25 5,4 C 0 % 83 % 1031,1 hPa 0,0 l/m 0,0 km/h (0 Bft) SW 225 0 min 2,7 C 5,4 C 0,0 km/h (0 Bft)
02.03.2021 19:20 5,6 C 0 % 83 % 1031,2 hPa 0,0 l/m 0,0 km/h (0 Bft) W 270 0 min 2,9 C 5,6 C 0,0 km/h (0 Bft)
02.03.2021 19:15 5,8 C 0 % 83 % 1031,2 hPa 0,0 l/m 0,0 km/h (0 Bft) W 270 0 min 3,1 C 5,8 C 0,0 km/h (0 Bft)
02.03.2021 19:10 6,0 C 0 % 84 % 1031,2 hPa 0,0 l/m 0,0 km/h (0 Bft) W 270 0 min 3,5 C 6,0 C 0,0 km/h (0 Bft)
02.03.2021 19:05 6,2 C 0 % 83 % 1031,2 hPa 0,0 l/m 0,0 km/h (0 Bft) SW 225 0 min 3,5 C 6,2 C 0,0 km/h (0 Bft)
02.03.2021 19:00 6,3 C 0 % 83 % 1031,1 hPa 0,0 l/m 0,0 km/h (0 Bft) SW 225 0 min 3,6 C 6,3 C 1,6 km/h (1 Bft)
02.03.2021 18:55 6,5 C 0 % 83 % 1031,1 hPa 0,0 l/m 0,0 km/h (0 Bft) SW 225 0 min 3,8 C 6,5 C 0,0 km/h (0 Bft)
02.03.2021 18:50 6,7 C 0 % 83 % 1031,1 hPa 0,0 l/m 0,0 km/h (0 Bft) W-SW 247 0 min 4,0 C 6,7 C 0,0 km/h (0 Bft)
02.03.2021 18:45 6,9 C 0 % 83 % 1031,1 hPa 0,0 l/m 0,0 km/h (0 Bft) W-SW 247 0 min 4,2 C 6,9 C 0,0 km/h (0 Bft)
02.03.2021 18:40 7,1 C 0 % 83 % 1031,1 hPa 0,0 l/m 0,3 km/h (0 Bft) W-SW 247 0 min 4,4 C 7,1 C 0,0 km/h (0 Bft)
02.03.2021 18:35 7,3 C 0 % 82 % 1031,1 hPa 0,0 l/m 0,5 km/h (0 Bft) S-SW 202 0 min 4,4 C 7,3 C 0,0 km/h (0 Bft)
02.03.2021 18:30 7,6 C 0 % 82 % 1031,1 hPa 0,0 l/m 0,2 km/h (0 Bft) SW 225 0 min 4,7 C 7,6 C 0,0 km/h (0 Bft)
02.03.2021 18:25 8,0 C 0 % 81 % 1031,1 hPa 0,0 l/m 0,0 km/h (0 Bft) SW 225 0 min 4,9 C 8,0 C 0,0 km/h (0 Bft)
02.03.2021 18:20 8,1 C 1 % 81 % 1030,9 hPa 0,0 l/m 0,0 km/h (0 Bft) SW 225 0 min 5,0 C 8,1 C 0,0 km/h (0 Bft)
02.03.2021 18:15 8,3 C 4 % 81 % 1030,9 hPa 0,0 l/m 0,0 km/h (0 Bft) W 270 0 min 5,2 C 8,3 C 0,0 km/h (0 Bft)
02.03.2021 18:10 8,7 C 9 % 80 % 1030,9 hPa 0,0 l/m 0,0 km/h (0 Bft) W-SW 247 0 min 5,4 C 8,7 C 0,0 km/h (0 Bft)
02.03.2021 18:05 8,8 C 13 % 80 % 1030,9 hPa 0,0 l/m 0,0 km/h (0 Bft) SW 225 0 min 5,5 C 8,8 C 0,0 km/h (0 Bft)
02.03.2021 18:00 9,1 C 16 % 80 % 1030,9 hPa 0,0 l/m 0,0 km/h (0 Bft) S 180 0 min 5,8 C 9,1 C 0,0 km/h (0 Bft)
02.03.2021 17:55 9,3 C 19 % 80 % 1030,9 hPa 0,0 l/m 0,0 km/h (0 Bft) S-SW 202 0 min 6,0 C 9,3 C 0,0 km/h (0 Bft)
02.03.2021 17:50 9,5 C 40 % 80 % 1030,9 hPa 0,0 l/m 0,0 km/h (0 Bft) W-NW 292 0 min 6,2 C 9,5 C 0,0 km/h (0 Bft)
02.03.2021 17:45 9,6 C 51 % 79 % 1030,9 hPa 0,0 l/m 0,0 km/h (0 Bft) W 270 5 min 6,1 C 9,6 C 0,0 km/h (0 Bft)
02.03.2021 17:40 9,7 C 55 % 79 % 1030,8 hPa 0,0 l/m 0,2 km/h (0 Bft) SW 225 5 min 6,2 C 9,7 C 0,0 km/h (0 Bft)
02.03.2021 17:35 9,9 C 58 % 79 % 1030,8 hPa 0,0 l/m 0,6 km/h (0 Bft) S-SW 202 5 min 6,4 C 9,9 C 0,0 km/h (0 Bft)
02.03.2021 17:30 10,0 C 62 % 79 % 1030,8 hPa 0,0 l/m 1,3 km/h (1 Bft) W 270 5 min 6,5 C 10,0 C 0,0 km/h (0 Bft)
02.03.2021 17:25 10,1 C 65 % 78 % 1030,8 hPa 0,0 l/m 1,4 km/h (1 Bft) W 270 5 min 6,4 C 10,1 C 2,7 km/h (1 Bft)
02.03.2021 17:20 10,3 C 67 % 78 % 1031,0 hPa 0,0 l/m 0,6 km/h (0 Bft) W 270 5 min 6,6 C 10,3 C 1,6 km/h (1 Bft)
02.03.2021 17:15 10,3 C 69 % 78 % 1031,0 hPa 0,0 l/m 0,3 km/h (0 Bft) O-SO 112 5 min 6,6 C 10,3 C 2,6 km/h (1 Bft)
02.03.2021 17:10 10,4 C 72 % 77 % 1031,0 hPa 0,0 l/m 1,1 km/h (1 Bft) N 360 5 min 6,5 C 10,4 C 0,0 km/h (0 Bft)
02.03.2021 17:05 10,4 C 74 % 77 % 1031,0 hPa 0,0 l/m 1,4 km/h (1 Bft) W-SW 247 5 min 6,5 C 10,4 C 1,8 km/h (1 Bft)
02.03.2021 17:00 10,5 C 75 % 77 % 1030,9 hPa 0,0 l/m 1,1 km/h (1 Bft) W-SW 247 5 min 6,6 C 10,5 C 4,0 km/h (1 Bft)
02.03.2021 16:55 10,5 C 76 % 77 % 1030,9 hPa 0,0 l/m 0,6 km/h (0 Bft) W 270 5 min 6,6 C 10,5 C 0,0 km/h (0 Bft)
02.03.2021 16:50 10,7 C 78 % 77 % 1030,9 hPa 0,0 l/m 0,3 km/h (0 Bft) W-SW 247 5 min 6,8 C 10,7 C 2,1 km/h (1 Bft)
02.03.2021 16:45 10,7 C 79 % 77 % 1030,9 hPa 0,0 l/m 0,5 km/h (0 Bft) W-NW 292 5 min 6,8 C 10,7 C 0,0 km/h (0 Bft)
02.03.2021 16:40 10,6 C 80 % 76 % 1031,0 hPa 0,0 l/m 1,1 km/h (1 Bft) N-NW 337 5 min 6,5 C 10,6 C 0,0 km/h (0 Bft)
02.03.2021 16:35 10,8 C 80 % 76 % 1031,0 hPa 0,0 l/m 1,0 km/h (0 Bft) NW 315 5 min 6,7 C 10,8 C 2,7 km/h (1 Bft)
02.03.2021 16:30 10,7 C 81 % 76 % 1031,0 hPa 0,0 l/m 0,6 km/h (0 Bft) S-SW 202 5 min 6,6 C 10,7 C 0,0 km/h (0 Bft)
02.03.2021 16:25 10,9 C 82 % 76 % 1031,0 hPa 0,0 l/m 1,4 km/h (1 Bft) W-SW 247 5 min 6,8 C 10,9 C 0,0 km/h (0 Bft)
02.03.2021 16:20 10,8 C 82 % 76 % 1031,1 hPa 0,0 l/m 2,3 km/h (1 Bft) SW 225 5 min 6,7 C 10,8 C 2,3 km/h (1 Bft)
02.03.2021 16:15 10,9 C 83 % 76 % 1031,1 hPa 0,0 l/m 3,1 km/h (1 Bft) SW 225 5 min 6,8 C 10,9 C 3,5 km/h (1 Bft)
02.03.2021 16:10 10,9 C 83 % 76 % 1031,1 hPa 0,0 l/m 2,9 km/h (1 Bft) NW 315 5 min 6,8 C 10,9 C 3,9 km/h (1 Bft)
02.03.2021 16:05 10,9 C 84 % 75 % 1031,1 hPa 0,0 l/m 2,9 km/h (1 Bft) W 270 5 min 6,6 C 10,9 C 5,5 km/h (1 Bft)
02.03.2021 16:00 10,9 C 85 % 75 % 1031,2 hPa 0,0 l/m 2,7 km/h (1 Bft) W 270 5 min 6,6 C 10,9 C 1,9 km/h (1 Bft)
02.03.2021 15:55 10,8 C 86 % 74 % 1031,2 hPa 0,0 l/m 1,9 km/h (1 Bft) W-NW 292 5 min 6,4 C 10,8 C 4,2 km/h (1 Bft)
02.03.2021 15:50 10,8 C 87 % 72 % 1031,2 hPa 0,0 l/m 0,6 km/h (0 Bft) N-NW 337 5 min 6,0 C 10,8 C 3,2 km/h (1 Bft)
02.03.2021 15:45 10,7 C 87 % 73 % 1031,2 hPa 0,0 l/m 0,3 km/h (0 Bft) N-NO 22 5 min 6,1 C 10,7 C 0,0 km/h (0 Bft)
02.03.2021 15:40 10,7 C 87 % 73 % 1031,5 hPa 0,0 l/m 0,3 km/h (0 Bft) NO 45 5 min 6,1 C 10,7 C 0,0 km/h (0 Bft)
02.03.2021 15:35 10,7 C 87 % 74 % 1031,5 hPa 0,0 l/m 1,0 km/h (0 Bft) W 270 5 min 6,3 C 10,7 C 0,0 km/h (0 Bft)
02.03.2021 15:30 10,4 C 87 % 74 % 1031,5 hPa 0,0 l/m 1,9 km/h (1 Bft) N-NO 22 5 min 6,0 C 10,4 C 3,1 km/h (1 Bft)
02.03.2021 15:25 10,5 C 88 % 74 % 1031,5 hPa 0,0 l/m 1,9 km/h (1 Bft) N-NO 22 5 min 6,1 C 10,5 C 3,7 km/h (1 Bft)
02.03.2021 15:20 10,5 C 88 % 74 % 1031,5 hPa 0,0 l/m 1,9 km/h (1 Bft) W-SW 247 5 min 6,1 C 10,5 C 3,9 km/h (1 Bft)
02.03.2021 15:15 10,5 C 88 % 74 % 1031,5 hPa 0,0 l/m 2,3 km/h (1 Bft) N-NW 337 5 min 6,1 C 10,5 C 4,3 km/h (1 Bft)
02.03.2021 15:10 10,5 C 89 % 75 % 1031,5 hPa 0,0 l/m 1,6 km/h (1 Bft) NW 315 5 min 6,3 C 10,5 C 0,0 km/h (0 Bft)
02.03.2021 15:05 10,7 C 90 % 75 % 1031,5 hPa 0,0 l/m 1,6 km/h (1 Bft) N-NO 22 5 min 6,5 C 10,7 C 4,7 km/h (1 Bft)
02.03.2021 15:00 10,5 C 89 % 74 % 1031,7 hPa 0,0 l/m 1,1 km/h (1 Bft) NW 315 5 min 6,1 C 10,5 C 3,9 km/h (1 Bft)
02.03.2021 14:55 10,5 C 90 % 75 % 1031,7 hPa 0,0 l/m 1,0 km/h (0 Bft) N-NW 337 5 min 6,3 C 10,5 C 2,1 km/h (1 Bft)
02.03.2021 14:50 10,4 C 89 % 74 % 1031,7 hPa 0,0 l/m 1,4 km/h (1 Bft) NW 315 5 min 6,0 C 10,4 C 0,0 km/h (0 Bft)
02.03.2021 14:45 10,3 C 89 % 74 % 1031,7 hPa 0,0 l/m 1,8 km/h (1 Bft) NO 45 5 min 5,9 C 10,3 C 0,0 km/h (0 Bft)
02.03.2021 14:40 10,3 C 89 % 74 % 1031,9 hPa 0,0 l/m 1,6 km/h (1 Bft) NW 315 5 min 5,9 C 10,3 C 3,5 km/h (1 Bft)
02.03.2021 14:35 10,4 C 89 % 74 % 1031,9 hPa 0,0 l/m 1,3 km/h (1 Bft) NW 315 5 min 6,0 C 10,4 C 3,5 km/h (1 Bft)
02.03.2021 14:30 10,3 C 90 % 72 % 1031,9 hPa 0,0 l/m 1,3 km/h (1 Bft) N-NO 22 5 min 5,5 C 10,3 C 4,0 km/h (1 Bft)
02.03.2021 14:25 10,3 C 90 % 73 % 1031,9 hPa 0,0 l/m 0,8 km/h (0 Bft) O-SO 112 5 min 5,7 C 10,3 C 2,3 km/h (1 Bft)
02.03.2021 14:20 10,2 C 90 % 73 % 1032,1 hPa 0,0 l/m 1,0 km/h (0 Bft) N-NO 22 5 min 5,6 C 10,2 C 1,9 km/h (1 Bft)
02.03.2021 14:15 10,3 C 90 % 75 % 1032,1 hPa 0,0 l/m 1,4 km/h (1 Bft) NW 315 5 min 6,1 C 10,3 C 0,0 km/h (0 Bft)
02.03.2021 14:10 10,0 C 89 % 75 % 1032,1 hPa 0,0 l/m 1,8 km/h (1 Bft) N-NO 22 5 min 5,8 C 10,0 C 0,0 km/h (0 Bft)
02.03.2021 14:05 9,9 C 90 % 75 % 1032,1 hPa 0,0 l/m 1,9 km/h (1 Bft) NW 315 5 min 5,7 C 9,9 C 3,9 km/h (1 Bft)
02.03.2021 14:00 10,0 C 89 % 74 % 1032,3 hPa 0,0 l/m 2,6 km/h (1 Bft) N-NW 337 5 min 5,6 C 10,0 C 4,3 km/h (1 Bft)
02.03.2021 13:55 10,2 C 89 % 75 % 1032,3 hPa 0,0 l/m 2,7 km/h (1 Bft) NW 315 5 min 6,0 C 10,2 C 2,4 km/h (1 Bft)
02.03.2021 13:50 9,9 C 89 % 75 % 1032,3 hPa 0,0 l/m 1,1 km/h (1 Bft) NW 315 5 min 5,7 C 9,9 C 2,9 km/h (1 Bft)
02.03.2021 13:45 9,5 C 89 % 76 % 1032,3 hPa 0,0 l/m 1,3 km/h (1 Bft) SW 225 5 min 5,5 C 9,5 C 1,6 km/h (1 Bft)
02.03.2021 13:40 9,6 C 89 % 76 % 1032,5 hPa 0,0 l/m 1,8 km/h (1 Bft) N-NW 337 5 min 5,6 C 9,6 C 0,0 km/h (0 Bft)
02.03.2021 13:35 9,2 C 88 % 78 % 1032,5 hPa 0,0 l/m 1,6 km/h (1 Bft) W-SW 247 5 min 5,6 C 9,2 C 1,8 km/h (1 Bft)
02.03.2021 13:30 8,5 C 88 % 79 % 1032,5 hPa 0,0 l/m 2,3 km/h (1 Bft) SW 225 5 min 5,1 C 8,5 C 4,0 km/h (1 Bft)
02.03.2021 13:25 8,4 C 89 % 79 % 1032,5 hPa 0,0 l/m 1,6 km/h (1 Bft) NW 315 5 min 5,0 C 8,4 C 2,6 km/h (1 Bft)
02.03.2021 13:20 8,5 C 90 % 76 % 1032,8 hPa 0,0 l/m 1,0 km/h (0 Bft) N-NW 337 5 min 4,5 C 8,5 C 2,6 km/h (1 Bft)
02.03.2021 13:15 8,3 C 89 % 79 % 1032,8 hPa 0,0 l/m 0,8 km/h (0 Bft) N 360 5 min 4,9 C 8,3 C 0,0 km/h (0 Bft)
02.03.2021 13:10 7,6 C 88 % 80 % 1032,8 hPa 0,0 l/m 0,5 km/h (0 Bft) N 360 5 min 4,4 C 7,6 C 0,0 km/h (0 Bft)
02.03.2021 13:05 7,5 C 84 % 81 % 1032,8 hPa 0,0 l/m 1,1 km/h (1 Bft) N-NW 337 0 min 4,5 C 7,5 C 0,0 km/h (0 Bft)
02.03.2021 13:00 7,3 C 86 % 81 % 1033,0 hPa 0,0 l/m 1,3 km/h (1 Bft) W-SW 247 5 min 4,3 C 7,3 C 0,0 km/h (0 Bft)
02.03.2021 12:55 7,2 C 85 % 82 % 1033,0 hPa 0,0 l/m 1,6 km/h (1 Bft) W-SW 247 0 min 4,3 C 7,2 C 3,7 km/h (1 Bft)
02.03.2021 12:50 6,9 C 84 % 81 % 1033,0 hPa 0,0 l/m 1,3 km/h (1 Bft) SW 225 0 min 3,9 C 6,9 C 2,1 km/h (1 Bft)
02.03.2021 12:45 6,8 C 87 % 84 % 1033,0 hPa 0,0 l/m 1,4 km/h (1 Bft) NW 315 5 min 4,3 C 6,8 C 2,6 km/h (1 Bft)
02.03.2021 12:40 6,5 C 83 % 83 % 1033,2 hPa 0,0 l/m 1,0 km/h (0 Bft) W-NW 292 0 min 3,8 C 6,5 C 0,0 km/h (0 Bft)
02.03.2021 12:35 6,5 C 81 % 82 % 1033,2 hPa 0,0 l/m 1,4 km/h (1 Bft) N-NO 22 0 min 3,7 C 6,5 C 0,0 km/h (0 Bft)
02.03.2021 12:30 6,5 C 80 % 84 % 1033,2 hPa 0,0 l/m 2,1 km/h (1 Bft) W-NW 292 0 min 4,0 C 6,5 C 3,7 km/h (1 Bft)
02.03.2021 12:25 6,0 C 80 % 85 % 1033,2 hPa 0,0 l/m 2,1 km/h (1 Bft) W 270 0 min 3,7 C 6,0 C 2,9 km/h (1 Bft)
02.03.2021 12:20 5,9 C 77 % 84 % 1033,5 hPa 0,0 l/m 2,3 km/h (1 Bft) W-NW 292 0 min 3,4 C 5,9 C 4,8 km/h (1 Bft)
02.03.2021 12:15 6,1 C 76 % 84 % 1033,5 hPa 0,0 l/m 2,4 km/h (1 Bft) NW 315 0 min 3,6 C 6,1 C 5,1 km/h (1 Bft)
02.03.2021 12:10 5,9 C 77 % 85 % 1033,5 hPa 0,0 l/m 1,8 km/h (1 Bft) NW 315 0 min 3,6 C 5,9 C 2,3 km/h (1 Bft)
02.03.2021 12:05 5,4 C 77 % 85 % 1033,5 hPa 0,0 l/m 1,4 km/h (1 Bft) N-NW 337 0 min 3,1 C 5,4 C 4,8 km/h (1 Bft)
02.03.2021 12:00 5,6 C 76 % 85 % 1033,4 hPa 0,0 l/m 2,3 km/h (1 Bft) N-NW 337 0 min 3,3 C 5,6 C 0,0 km/h (0 Bft)
02.03.2021 11:55 5,7 C 79 % 84 % 1033,4 hPa 0,0 l/m 2,4 km/h (1 Bft) NW 315 0 min 3,2 C 5,7 C 3,1 km/h (1 Bft)
02.03.2021 11:50 5,9 C 80 % 85 % 1033,4 hPa 0,0 l/m 1,1 km/h (1 Bft) W-NW 292 0 min 3,6 C 5,9 C 4,8 km/h (1 Bft)
02.03.2021 11:45 5,7 C 82 % 85 % 1033,4 hPa 0,0 l/m 0,2 km/h (0 Bft) W-NW 292 0 min 3,4 C 5,7 C 2,3 km/h (1 Bft)
02.03.2021 11:40 5,3 C 79 % 86 % 1033,4 hPa 0,0 l/m 1,6 km/h (1 Bft) S-SO 157 0 min 3,2 C 5,3 C 0,0 km/h (0 Bft)
02.03.2021 11:35 5,2 C 76 % 87 % 1033,4 hPa 0,0 l/m 2,6 km/h (1 Bft) N-NW 337 0 min 3,2 C 5,2 C 1,6 km/h (1 Bft)
02.03.2021 11:30 4,9 C 72 % 88 % 1033,4 hPa 0,0 l/m 2,9 km/h (1 Bft) W 270 0 min 3,1 C 4,9 C 3,5 km/h (1 Bft)
02.03.2021 11:25 4,6 C 71 % 88 % 1033,4 hPa 0,0 l/m 2,3 km/h (1 Bft) W-NW 292 0 min 2,8 C 4,6 C 2,3 km/h (1 Bft)
02.03.2021 11:20 4,4 C 71 % 88 % 1033,4 hPa 0,0 l/m 1,1 km/h (1 Bft) N-NW 337 0 min 2,6 C 4,4 C 1,8 km/h (1 Bft)
02.03.2021 11:15 4,4 C 71 % 87 % 1033,4 hPa 0,0 l/m 1,1 km/h (1 Bft) N-NO 22 0 min 2,4 C 4,4 C 3,2 km/h (1 Bft)
02.03.2021 11:10 4,4 C 70 % 87 % 1033,4 hPa 0,0 l/m 2,1 km/h (1 Bft) N-NO 22 0 min 2,4 C 4,4 C 2,1 km/h (1 Bft)
02.03.2021 11:05 4,3 C 69 % 88 % 1033,4 hPa 0,0 l/m 2,7 km/h (1 Bft) NW 315 0 min 2,5 C 4,3 C 0,0 km/h (0 Bft)
02.03.2021 11:00 4,4 C 68 % 88 % 1033,2 hPa 0,0 l/m 2,3 km/h (1 Bft) W-NW 292 0 min 2,6 C 4,4 C 3,5 km/h (1 Bft)
02.03.2021 10:55 4,7 C 68 % 88 % 1033,2 hPa 0,0 l/m 1,4 km/h (1 Bft) N-NW 337 0 min 2,9 C 4,7 C 3,1 km/h (1 Bft)
02.03.2021 10:50 4,5 C 68 % 88 % 1033,2 hPa 0,0 l/m 1,1 km/h (1 Bft) N-NW 337 0 min 2,7 C 4,5 C 1,6 km/h (1 Bft)
02.03.2021 10:45 4,6 C 69 % 88 % 1033,2 hPa 0,0 l/m 0,5 km/h (0 Bft) NW 315 0 min 2,8 C 4,6 C 2,3 km/h (1 Bft)
02.03.2021 10:40 4,5 C 73 % 88 % 1033,6 hPa 0,0 l/m 0,0 km/h (0 Bft) W-SW 247 0 min 2,7 C 4,5 C 0,0 km/h (0 Bft)
02.03.2021 10:35 4,3 C 76 % 89 % 1033,6 hPa 0,0 l/m 0,0 km/h (0 Bft) O-SO 112 0 min 2,7 C 4,3 C 0,0 km/h (0 Bft)
02.03.2021 10:30 4,0 C 73 % 89 % 1033,6 hPa 0,0 l/m 0,8 km/h (0 Bft) NW 315 0 min 2,4 C 4,0 C 0,0 km/h (0 Bft)
02.03.2021 10:25 3,9 C 72 % 90 % 1033,6 hPa 0,0 l/m 1,0 km/h (0 Bft) SW 225 0 min 2,4 C 3,9 C 0,0 km/h (0 Bft)
02.03.2021 10:20 3,9 C 70 % 90 % 1033,5 hPa 0,0 l/m 0,5 km/h (0 Bft) SW 225 0 min 2,4 C 3,9 C 2,7 km/h (1 Bft)
02.03.2021 10:15 3,9 C 64 % 90 % 1033,5 hPa 0,0 l/m 0,2 km/h (0 Bft) NO 45 0 min 2,4 C 3,9 C 0,0 km/h (0 Bft)
02.03.2021 10:10 3,6 C 64 % 91 % 1033,5 hPa 0,0 l/m 1,1 km/h (1 Bft) N-NO 22 0 min 2,3 C 3,6 C 0,0 km/h (0 Bft)
02.03.2021 10:05 3,7 C 65 % 91 % 1033,5 hPa 0,0 l/m 1,3 km/h (1 Bft) NW 315 0 min 2,4 C 3,7 C 0,0 km/h (0 Bft)
02.03.2021 10:00 3,5 C 64 % 91 % 1033,5 hPa 0,0 l/m 0,5 km/h (0 Bft) NW 315 0 min 2,2 C 3,5 C 0,0 km/h (0 Bft)
02.03.2021 09:55 3,5 C 61 % 91 % 1033,5 hPa 0,0 l/m 0,6 km/h (0 Bft) N-NW 337 0 min 2,2 C 3,5 C 0,0 km/h (0 Bft)
02.03.2021 09:50 3,3 C 61 % 91 % 1033,5 hPa 0,0 l/m 1,1 km/h (1 Bft) NW 315 0 min 2,0 C 3,3 C 2,3 km/h (1 Bft)
02.03.2021 09:45 3,3 C 61 % 91 % 1033,5 hPa 0,0 l/m 0,6 km/h (0 Bft) W-NW 292 0 min 2,0 C 3,3 C 2,1 km/h (1 Bft)
02.03.2021 09:40 3,3 C 59 % 92 % 1033,3 hPa 0,0 l/m 0,6 km/h (0 Bft) SO 135 0 min 2,1 C 3,3 C 0,0 km/h (0 Bft)
02.03.2021 09:35 3,2 C 59 % 92 % 1033,3 hPa 0,0 l/m 0,6 km/h (0 Bft) NW 315 0 min 2,0 C 3,2 C 2,3 km/h (1 Bft)
02.03.2021 09:30 3,1 C 57 % 92 % 1033,3 hPa 0,0 l/m 0,2 km/h (0 Bft) SW 225 0 min 1,9 C 3,1 C 0,0 km/h (0 Bft)
02.03.2021 09:25 3,1 C 58 % 91 % 1033,3 hPa 0,0 l/m 0,3 km/h (0 Bft) N-NW 337 0 min 1,8 C 3,1 C 0,0 km/h (0 Bft)
02.03.2021 09:20 3,1 C 58 % 91 % 1033,3 hPa 0,0 l/m 0,3 km/h (0 Bft) N-NO 22 0 min 1,8 C 3,1 C 0,0 km/h (0 Bft)
02.03.2021 09:15 3,1 C 57 % 92 % 1033,3 hPa 0,0 l/m 0,3 km/h (0 Bft) NW 315 0 min 1,9 C 3,1 C 2,3 km/h (1 Bft)
02.03.2021 09:10 3,1 C 55 % 91 % 1033,3 hPa 0,0 l/m 0,8 km/h (0 Bft) O-SO 112 0 min 1,8 C 3,1 C 0,0 km/h (0 Bft)
02.03.2021 09:05 2,9 C 54 % 91 % 1033,3 hPa 0,0 l/m 1,3 km/h (1 Bft) N-NO 22 0 min 1,6 C 2,9 C 2,1 km/h (1 Bft)
02.03.2021 09:00 3,1 C 54 % 91 % 1033,2 hPa 0,0 l/m 1,0 km/h (0 Bft) N-NO 22 0 min 1,8 C 3,1 C 3,5 km/h (1 Bft)
02.03.2021 08:55 3,0 C 53 % 91 % 1033,2 hPa 0,0 l/m 0,3 km/h (0 Bft) NW 315 0 min 1,7 C 3,0 C 1,8 km/h (1 Bft)
02.03.2021 08:50 3,2 C 51 % 91 % 1033,2 hPa 0,0 l/m 0,3 km/h (0 Bft) N 360 0 min 1,9 C 3,2 C 2,1 km/h (1 Bft)
02.03.2021 08:45 3,2 C 49 % 91 % 1033,2 hPa 0,0 l/m 0,6 km/h (0 Bft) NO 45 0 min 1,9 C 3,2 C 0,0 km/h (0 Bft)
02.03.2021 08:40 3,2 C 48 % 92 % 1033,2 hPa 0,0 l/m 0,3 km/h (0 Bft) NO 45 0 min 2,0 C 3,2 C 1,8 km/h (1 Bft)
02.03.2021 08:35 3,3 C 47 % 92 % 1033,2 hPa 0,0 l/m 0,0 km/h (0 Bft) N-NO 22 0 min 2,1 C 3,3 C 0,0 km/h (0 Bft)
02.03.2021 08:30 3,3 C 46 % 92 % 1033,2 hPa 0,0 l/m 0,0 km/h (0 Bft) S-SO 157 0 min 2,1 C 3,3 C 0,0 km/h (0 Bft)
02.03.2021 08:25 3,1 C 45 % 92 % 1033,2 hPa 0,0 l/m 0,0 km/h (0 Bft) NW 315 0 min 1,9 C 3,1 C 0,0 km/h (0 Bft)
02.03.2021 08:20 3,0 C 44 % 92 % 1033,0 hPa 0,0 l/m 0,0 km/h (0 Bft) S 180 0 min 1,8 C 3,0 C 0,0 km/h (0 Bft)
02.03.2021 08:15 3,1 C 42 % 92 % 1033,0 hPa 0,0 l/m 0,0 km/h (0 Bft) S-SO 157 0 min 1,9 C 3,1 C 0,0 km/h (0 Bft)
02.03.2021 08:10 3,1 C 42 % 92 % 1033,0 hPa 0,0 l/m 0,0 km/h (0 Bft) S-SO 157 0 min 1,9 C 3,1 C 0,0 km/h (0 Bft)
02.03.2021 08:05 3,1 C 39 % 92 % 1033,0 hPa 0,0 l/m 0,0 km/h (0 Bft) NO 45 0 min 1,9 C 3,1 C 0,0 km/h (0 Bft)
02.03.2021 08:00 2,9 C 37 % 92 % 1033,1 hPa 0,0 l/m 0,0 km/h (0 Bft) S 180 0 min 1,7 C 2,9 C 0,0 km/h (0 Bft)
02.03.2021 07:55 2,8 C 36 % 92 % 1033,1 hPa 0,0 l/m 0,0 km/h (0 Bft) N-NW 337 0 min 1,6 C 2,8 C 0,0 km/h (0 Bft)
02.03.2021 07:50 2,8 C 32 % 92 % 1033,1 hPa 0,0 l/m 0,2 km/h (0 Bft) NW 315 0 min 1,6 C 2,8 C 0,0 km/h (0 Bft)
02.03.2021 07:45 2,9 C 29 % 92 % 1033,1 hPa 0,0 l/m 0,5 km/h (0 Bft) N-NW 337 0 min 1,7 C 2,9 C 0,0 km/h (0 Bft)
02.03.2021 07:40 2,8 C 28 % 92 % 1032,7 hPa 0,0 l/m 0,8 km/h (0 Bft) NW 315 0 min 1,6 C 2,8 C 0,0 km/h (0 Bft)
02.03.2021 07:35 2,8 C 26 % 92 % 1032,7 hPa 0,0 l/m 1,3 km/h (1 Bft) N-NW 337 0 min 1,6 C 2,8 C 0,0 km/h (0 Bft)
02.03.2021 07:30 2,8 C 21 % 92 % 1032,7 hPa 0,0 l/m 1,4 km/h (1 Bft) N-NW 337 0 min 1,6 C 2,8 C 0,0 km/h (0 Bft)
02.03.2021 07:25 2,8 C 19 % 92 % 1032,7 hPa 0,0 l/m 1,4 km/h (1 Bft) W 270 0 min 1,6 C 2,8 C 1,9 km/h (1 Bft)
02.03.2021 07:20 2,9 C 17 % 92 % 1032,6 hPa 0,0 l/m 1,0 km/h (0 Bft) NW 315 0 min 1,7 C 2,9 C 2,1 km/h (1 Bft)
02.03.2021 07:15 2,9 C 14 % 92 % 1032,6 hPa 0,0 l/m 0,3 km/h (0 Bft) N-NW 337 0 min 1,7 C 2,9 C 0,0 km/h (0 Bft)
02.03.2021 07:10 3,1 C 11 % 92 % 1032,6 hPa 0,0 l/m 0,0 km/h (0 Bft) NO 45 0 min 1,9 C 3,1 C 0,0 km/h (0 Bft)
02.03.2021 07:05 3,1 C 7 % 92 % 1032,6 hPa 0,0 l/m 0,0 km/h (0 Bft) N-NO 22 0 min 1,9 C 3,1 C 0,0 km/h (0 Bft)
02.03.2021 07:00 3,0 C 6 % 92 % 1032,6 hPa 0,0 l/m 0,0 km/h (0 Bft) N-NO 22 0 min 1,8 C 3,0 C 1,6 km/h (1 Bft)
02.03.2021 06:55 3,1 C 4 % 92 % 1032,6 hPa 0,0 l/m 0,0 km/h (0 Bft) N-NO 22 0 min 1,9 C 3,1 C 0,0 km/h (0 Bft)
02.03.2021 06:50 3,1 C 2 % 92 % 1032,6 hPa 0,0 l/m 0,0 km/h (0 Bft) O-SO 112 0 min 1,9 C 3,1 C 0,0 km/h (0 Bft)
02.03.2021 06:45 3,1 C 1 % 93 % 1032,6 hPa 0,0 l/m 0,0 km/h (0 Bft) W 270 0 min 2,1 C 3,1 C 0,0 km/h (0 Bft)
02.03.2021 06:40 3,0 C 1 % 93 % 1032,6 hPa 0,0 l/m 0,0 km/h (0 Bft) S 180 0 min 2,0 C 3,0 C 0,0 km/h (0 Bft)
02.03.2021 06:35 3,0 C 1 % 93 % 1032,6 hPa 0,0 l/m 0,0 km/h (0 Bft) SW 225 0 min 2,0 C 3,0 C 0,0 km/h (0 Bft)
02.03.2021 06:30 2,9 C 1 % 93 % 1032,6 hPa 0,0 l/m 0,0 km/h (0 Bft) NW 315 0 min 1,9 C 2,9 C 0,0 km/h (0 Bft)
02.03.2021 06:25 2,9 C 1 % 93 % 1032,6 hPa 0,0 l/m 0,3 km/h (0 Bft) N-NO 22 0 min 1,9 C 2,9 C 0,0 km/h (0 Bft)
02.03.2021 06:20 2,8 C 1 % 92 % 1032,7 hPa 0,0 l/m 0,8 km/h (0 Bft) NO 45 0 min 1,6 C 2,8 C 0,0 km/h (0 Bft)
02.03.2021 06:15 2,8 C 1 % 93 % 1032,7 hPa 0,0 l/m 0,5 km/h (0 Bft) N-NO 22 0 min 1,8 C 2,8 C 3,7 km/h (1 Bft)
02.03.2021 06:10 2,8 C 1 % 93 % 1032,7 hPa 0,0 l/m 0,3 km/h (0 Bft) N-NO 22 0 min 1,8 C 2,8 C 3,1 km/h (1 Bft)
02.03.2021 06:05 2,8 C 1 % 92 % 1032,7 hPa 0,0 l/m 1,3 km/h (1 Bft) N-NO 22 0 min 1,6 C 2,8 C 0,0 km/h (0 Bft)
02.03.2021 06:00 2,8 C 1 % 93 % 1032,6 hPa 0,0 l/m 1,3 km/h (1 Bft) N-NO 22 0 min 1,8 C 2,8 C 0,0 km/h (0 Bft)
02.03.2021 05:55 2,8 C 1 % 93 % 1032,6 hPa 0,0 l/m 1,4 km/h (1 Bft) O-NO 67 0 min 1,8 C 2,8 C 2,7 km/h (1 Bft)
02.03.2021 05:50 2,8 C 1 % 93 % 1032,6 hPa 0,0 l/m 0,8 km/h (0 Bft) N-NO 22 0 min 1,8 C 2,8 C 2,1 km/h (1 Bft)
02.03.2021 05:45 2,9 C 1 % 93 % 1032,6 hPa 0,0 l/m 0,8 km/h (0 Bft) O-NO 67 0 min 1,9 C 2,9 C 1,6 km/h (1 Bft)
02.03.2021 05:40 2,8 C 1 % 93 % 1032,7 hPa 0,0 l/m 0,6 km/h (0 Bft) N 360 0 min 1,8 C 2,8 C 1,8 km/h (1 Bft)
02.03.2021 05:35 2,8 C 1 % 93 % 1032,7 hPa 0,0 l/m 0,2 km/h (0 Bft) N-NW 337 0 min 1,8 C 2,8 C 0,0 km/h (0 Bft)
02.03.2021 05:30 2,8 C 1 % 93 % 1032,7 hPa 0,0 l/m 0,6 km/h (0 Bft) NW 315 0 min 1,8 C 2,8 C 1,6 km/h (1 Bft)
02.03.2021 05:25 2,8 C 1 % 93 % 1032,7 hPa 0,0 l/m 0,5 km/h (0 Bft) N-NW 337 0 min 1,8 C 2,8 C 2,1 km/h (1 Bft)
02.03.2021 05:20 2,9 C 1 % 93 % 1032,9 hPa 0,0 l/m 0,2 km/h (0 Bft) NW 315 0 min 1,9 C 2,9 C 2,1 km/h (1 Bft)
02.03.2021 05:15 2,9 C 1 % 93 % 1032,9 hPa 0,0 l/m 0,0 km/h (0 Bft) N-NW 337 0 min 1,9 C 2,9 C 0,0 km/h (0 Bft)
02.03.2021 05:10 2,8 C 1 % 93 % 1032,9 hPa 0,0 l/m 0,2 km/h (0 Bft) N 360 0 min 1,8 C 2,8 C 0,0 km/h (0 Bft)
02.03.2021 05:05 2,8 C 1 % 93 % 1032,9 hPa 0,0 l/m 0,2 km/h (0 Bft) NW 315 0 min 1,8 C 2,8 C 0,0 km/h (0 Bft)
02.03.2021 05:00 2,8 C 1 % 93 % 1032,6 hPa 0,0 l/m 0,0 km/h (0 Bft) NW 315 0 min 1,8 C 2,8 C 0,0 km/h (0 Bft)
02.03.2021 04:55 2,8 C 1 % 93 % 1032,6 hPa 0,0 l/m 0,0 km/h (0 Bft) NW 315 0 min 1,8 C 2,8 C 0,0 km/h (0 Bft)
02.03.2021 04:50 2,6 C 1 % 93 % 1032,6 hPa 0,0 l/m 0,0 km/h (0 Bft) N-NW 337 0 min 1,6 C 2,6 C 0,0 km/h (0 Bft)
02.03.2021 04:45 2,6 C 1 % 93 % 1032,6 hPa 0,0 l/m 0,0 km/h (0 Bft) N-NO 22 0 min 1,6 C 2,6 C 0,0 km/h (0 Bft)
02.03.2021 04:40 2,7 C 1 % 93 % 1032,8 hPa 0,0 l/m 0,2 km/h (0 Bft) N-NO 22 0 min 1,7 C 2,7 C 0,0 km/h (0 Bft)
02.03.2021 04:35 2,7 C 1 % 93 % 1032,8 hPa 0,0 l/m 0,8 km/h (0 Bft) N-NW 337 0 min 1,7 C 2,7 C 0,0 km/h (0 Bft)
02.03.2021 04:30 2,7 C 1 % 93 % 1032,8 hPa 0,0 l/m 1,8 km/h (1 Bft) NO 45 0 min 1,7 C 2,7 C 1,8 km/h (1 Bft)
02.03.2021 04:25 2,7 C 1 % 93 % 1032,8 hPa 0,0 l/m 1,9 km/h (1 Bft) N-NO 22 0 min 1,7 C 2,7 C 2,7 km/h (1 Bft)
02.03.2021 04:20 2,7 C 1 % 92 % 1032,6 hPa 0,0 l/m 1,8 km/h (1 Bft) N-NO 22 0 min 1,5 C 2,7 C 2,9 km/h (1 Bft)
02.03.2021 04:15 2,7 C 1 % 92 % 1032,6 hPa 0,0 l/m 2,4 km/h (1 Bft) N-NO 22 0 min 1,5 C 2,7 C 6,6 km/h (2 Bft)
02.03.2021 04:10 2,7 C 1 % 92 % 1032,6 hPa 0,0 l/m 2,6 km/h (1 Bft) NW 315 0 min 1,5 C 2,7 C 2,1 km/h (1 Bft)
02.03.2021 04:05 2,8 C 1 % 92 % 1032,6 hPa 0,0 l/m 2,9 km/h (1 Bft) N-NO 22 0 min 1,6 C 2,8 C 4,8 km/h (1 Bft)
02.03.2021 04:00 2,9 C 1 % 92 % 1032,6 hPa 0,0 l/m 2,7 km/h (1 Bft) N-NO 22 0 min 1,7 C 2,9 C 2,9 km/h (1 Bft)
02.03.2021 03:55 3,0 C 1 % 92 % 1032,6 hPa 0,0 l/m 2,4 km/h (1 Bft) NO 45 0 min 1,8 C 3,0 C 4,2 km/h (1 Bft)
02.03.2021 03:50 3,1 C 1 % 92 % 1032,6 hPa 0,0 l/m 1,3 km/h (1 Bft) N-NO 22 0 min 1,9 C 3,1 C 3,5 km/h (1 Bft)
02.03.2021 03:45 3,2 C 1 % 92 % 1032,6 hPa 0,0 l/m 0,6 km/h (0 Bft) N-NO 22 0 min 2,0 C 3,2 C 2,1 km/h (1 Bft)
02.03.2021 03:40 3,2 C 1 % 92 % 1032,8 hPa 0,0 l/m 0,8 km/h (0 Bft) N-NO 22 0 min 2,0 C 3,2 C 0,0 km/h (0 Bft)
02.03.2021 03:35 3,1 C 1 % 92 % 1032,8 hPa 0,0 l/m 1,0 km/h (0 Bft) SO 135 0 min 1,9 C 3,1 C 0,0 km/h (0 Bft)
02.03.2021 03:30 3,1 C 1 % 92 % 1032,8 hPa 0,0 l/m 0,5 km/h (0 Bft) O-NO 67 0 min 1,9 C 3,1 C 1,8 km/h (1 Bft)
02.03.2021 03:25 3,1 C 1 % 92 % 1032,8 hPa 0,0 l/m 0,5 km/h (0 Bft) N-NO 22 0 min 1,9 C 3,1 C 1,6 km/h (1 Bft)
02.03.2021 03:20 3,1 C 1 % 92 % 1032,8 hPa 0,0 l/m 1,1 km/h (1 Bft) N-NO 22 0 min 1,9 C 3,1 C 0,0 km/h (0 Bft)
02.03.2021 03:16 3,1 C 1 % 92 % 1032,8 hPa 0,0 l/m 1,6 km/h (1 Bft) N-NO 22 0 min 1,9 C 3,1 C 2,7 km/h (1 Bft)
02.03.2021 03:15 3,1 C 1 % 92 % 1032,8 hPa 0,0 l/m 1,6 km/h (1 Bft) N-NO 22 0 min 1,9 C 3,1 C 2,7 km/h (1 Bft)
02.03.2021 03:10 3,2 C 1 % 92 % 1032,8 hPa 0,0 l/m 0,6 km/h (0 Bft) N-NO 22 0 min 2,0 C 3,2 C 2,4 km/h (1 Bft)
02.03.2021 03:05 3,3 C 1 % 92 % 1032,8 hPa 0,0 l/m 1,0 km/h (0 Bft) N-NO 22 0 min 2,1 C 3,3 C 1,9 km/h (1 Bft)
02.03.2021 03:00 3,3 C 1 % 92 % 1033,0 hPa 0,0 l/m 2,3 km/h (1 Bft) O-NO 67 0 min 2,1 C 3,3 C 0,0 km/h (0 Bft)
02.03.2021 02:55 3,3 C 1 % 92 % 1033,0 hPa 0,0 l/m 2,9 km/h (1 Bft) N-NO 22 0 min 2,1 C 3,3 C 6,0 km/h (2 Bft)
02.03.2021 02:50 3,3 C 1 % 92 % 1033,0 hPa 0,0 l/m 2,4 km/h (1 Bft) O-NO 67 0 min 2,1 C 3,3 C 1,6 km/h (1 Bft)
02.03.2021 02:45 3,4 C 1 % 92 % 1033,0 hPa 0,0 l/m 2,3 km/h (1 Bft) N-NO 22 0 min 2,2 C 3,4 C 2,7 km/h (1 Bft)
02.03.2021 02:40 3,5 C 1 % 92 % 1033,2 hPa 0,0 l/m 1,0 km/h (0 Bft) NW 315 0 min 2,3 C 3,5 C 1,8 km/h (1 Bft)
02.03.2021 02:35 3,6 C 1 % 92 % 1033,2 hPa 0,0 l/m 0,5 km/h (0 Bft) N-NO 22 0 min 2,4 C 3,6 C 3,1 km/h (1 Bft)
02.03.2021 02:30 3,7 C 1 % 92 % 1033,2 hPa 0,0 l/m 1,3 km/h (1 Bft) SO 135 0 min 2,5 C 3,7 C 0,0 km/h (0 Bft)
02.03.2021 02:25 3,6 C 1 % 92 % 1033,2 hPa 0,0 l/m 1,4 km/h (1 Bft) N-NO 22 0 min 2,4 C 3,6 C 2,7 km/h (1 Bft)
02.03.2021 02:20 3,7 C 1 % 92 % 1033,1 hPa 0,0 l/m 0,3 km/h (0 Bft) NO 45 0 min 2,5 C 3,7 C 2,4 km/h (1 Bft)
02.03.2021 02:15 3,7 C 1 % 92 % 1033,1 hPa 0,0 l/m 0,3 km/h (0 Bft) S-SO 157 0 min 2,5 C 3,7 C 0,0 km/h (0 Bft)
02.03.2021 02:10 3,7 C 1 % 92 % 1033,1 hPa 0,0 l/m 0,5 km/h (0 Bft) N-NO 22 0 min 2,5 C 3,7 C 0,0 km/h (0 Bft)
02.03.2021 02:05 3,7 C 1 % 92 % 1033,1 hPa 0,0 l/m 0,8 km/h (0 Bft) O-SO 112 0 min 2,5 C 3,7 C 1,8 km/h (1 Bft)
02.03.2021 02:00 3,6 C 1 % 92 % 1033,3 hPa 0,0 l/m 0,8 km/h (0 Bft) N-NW 337 0 min 2,4 C 3,6 C 0,0 km/h (0 Bft)
02.03.2021 01:55 3,6 C 1 % 92 % 1033,3 hPa 0,0 l/m 1,4 km/h (1 Bft) O 90 0 min 2,4 C 3,6 C 3,5 km/h (1 Bft)
02.03.2021 01:50 3,7 C 1 % 92 % 1033,3 hPa 0,0 l/m 1,1 km/h (1 Bft) NO 45 0 min 2,5 C 3,7 C 2,9 km/h (1 Bft)
02.03.2021 01:45 3,9 C 1 % 92 % 1033,3 hPa 0,0 l/m 0,3 km/h (0 Bft) N-NW 337 0 min 2,7 C 3,9 C 1,9 km/h (1 Bft)
02.03.2021 01:40 3,9 C 1 % 92 % 1033,2 hPa 0,0 l/m 1,0 km/h (0 Bft) NO 45 0 min 2,7 C 3,9 C 1,6 km/h (1 Bft)
02.03.2021 01:35 3,8 C 1 % 92 % 1033,2 hPa 0,0 l/m 1,3 km/h (1 Bft) SO 135 0 min 2,6 C 3,8 C 0,0 km/h (0 Bft)
02.03.2021 01:30 3,8 C 1 % 92 % 1033,2 hPa 0,0 l/m 0,8 km/h (0 Bft) SO 135 0 min 2,6 C 3,8 C 1,8 km/h (1 Bft)
02.03.2021 01:25 3,9 C 1 % 92 % 1033,2 hPa 0,0 l/m 0,3 km/h (0 Bft) NW 315 0 min 2,7 C 3,9 C 2,3 km/h (1 Bft)
02.03.2021 01:20 3,9 C 1 % 92 % 1033,1 hPa 0,0 l/m 0,2 km/h (0 Bft) N-NO 22 0 min 2,7 C 3,9 C 2,6 km/h (1 Bft)
02.03.2021 01:15 3,9 C 1 % 92 % 1033,1 hPa 0,0 l/m 0,3 km/h (0 Bft) N-NW 337 0 min 2,7 C 3,9 C 0,0 km/h (0 Bft)
02.03.2021 01:10 3,9 C 1 % 92 % 1033,1 hPa 0,0 l/m 0,6 km/h (0 Bft) SO 135 0 min 2,7 C 3,9 C 0,0 km/h (0 Bft)
02.03.2021 01:05 3,9 C 1 % 92 % 1033,1 hPa 0,0 l/m 0,6 km/h (0 Bft) O 90 0 min 2,7 C 3,9 C 3,1 km/h (1 Bft)
02.03.2021 01:00 3,9 C 1 % 92 % 1033,2 hPa 0,0 l/m 0,5 km/h (0 Bft) S 180 0 min 2,7 C 3,9 C 0,0 km/h (0 Bft)
02.03.2021 00:55 3,9 C 1 % 92 % 1033,2 hPa 0,0 l/m 0,6 km/h (0 Bft) S-SO 157 0 min 2,7 C 3,9 C 0,0 km/h (0 Bft)
02.03.2021 00:50 3,9 C 1 % 92 % 1033,2 hPa 0,0 l/m 1,6 km/h (1 Bft) O-SO 112 0 min 2,7 C 3,9 C 5,1 km/h (1 Bft)
02.03.2021 00:45 4,0 C 1 % 92 % 1033,2 hPa 0,0 l/m 1,3 km/h (1 Bft) O-NO 67 0 min 2,8 C 4,0 C 4,8 km/h (1 Bft)
02.03.2021 00:40 4,0 C 1 % 92 % 1033,1 hPa 0,0 l/m 0,5 km/h (0 Bft) O-SO 112 0 min 2,8 C 4,0 C 3,1 km/h (1 Bft)
02.03.2021 00:35 4,0 C 1 % 92 % 1033,1 hPa 0,0 l/m 0,0 km/h (0 Bft) SO 135 0 min 2,8 C 4,0 C 0,0 km/h (0 Bft)
02.03.2021 00:30 4,0 C 1 % 92 % 1033,1 hPa 0,0 l/m 0,2 km/h (0 Bft) O-SO 112 0 min 2,8 C 4,0 C 1,6 km/h (1 Bft)
02.03.2021 00:25 4,0 C 0 % 92 % 1033,1 hPa 0,0 l/m 0,0 km/h (0 Bft) O-NO 67 0 min 2,8 C 4,0 C 0,0 km/h (0 Bft)
02.03.2021 00:20 4,0 C 0 % 92 % 1033,0 hPa 0,0 l/m 0,3 km/h (0 Bft) O-NO 67 0 min 2,8 C 4,0 C 0,0 km/h (0 Bft)
02.03.2021 00:15 4,0 C 1 % 92 % 1033,0 hPa 0,0 l/m 0,3 km/h (0 Bft) S 180 0 min 2,8 C 4,0 C 0,0 km/h (0 Bft)
02.03.2021 00:10 4,0 C 1 % 92 % 1033,0 hPa 0,0 l/m 0,8 km/h (0 Bft) O-NO 67 0 min 2,8 C 4,0 C 3,5 km/h (1 Bft)
02.03.2021 00:05 4,0 C 1 % 92 % 1033,0 hPa 0,0 l/m 0,5 km/h (0 Bft) SO 135 0 min 2,8 C 4,0 C 0,0 km/h (0 Bft)
02.03.2021 00:00 4,1 C 1 % 92 % 1033,2 hPa 0,0 l/m 0,5 km/h (0 Bft) N-NO 22 0 min 2,9 C 4,1 C 2,9 km/h (1 Bft)
01.03.2021 23:55 4,0 C 0 % 92 % 1033,2 hPa 0,0 l/m 1,0 km/h (0 Bft) SW 225 0 min 2,8 C 4,0 C 0,0 km/h (0 Bft)
01.03.2021 23:50 4,0 C 0 % 92 % 1033,2 hPa 0,0 l/m 1,0 km/h (0 Bft) N-NO 22 0 min 2,8 C 4,0 C 0,0 km/h (0 Bft)
01.03.2021 23:45 4,1 C 1 % 92 % 1033,2 hPa 0,0 l/m 0,6 km/h (0 Bft) N-NO 22 0 min 2,9 C 4,1 C 0,0 km/h (0 Bft)
01.03.2021 23:40 4,1 C 1 % 92 % 1033,4 hPa 0,0 l/m 0,6 km/h (0 Bft) N-NO 22 0 min 2,9 C 4,1 C 2,6 km/h (1 Bft)
01.03.2021 23:35 4,3 C 1 % 92 % 1033,4 hPa 0,0 l/m 0,6 km/h (0 Bft) NO 45 0 min 3,1 C 4,3 C 0,0 km/h (0 Bft)
01.03.2021 23:30 4,1 C 1 % 92 % 1033,4 hPa 0,0 l/m 0,6 km/h (0 Bft) NO 45 0 min 2,9 C 4,1 C 1,9 km/h (1 Bft)
01.03.2021 23:25 4,3 C 0 % 92 % 1033,4 hPa 0,0 l/m 0,5 km/h (0 Bft) O-SO 112 0 min 3,1 C 4,3 C 3,1 km/h (1 Bft)
01.03.2021 23:20 4,2 C 0 % 92 % 1033,6 hPa 0,0 l/m 1,1 km/h (1 Bft) O-NO 67 0 min 3,0 C 4,2 C 0,0 km/h (0 Bft)
01.03.2021 23:15 4,1 C 0 % 92 % 1033,6 hPa 0,0 l/m 1,4 km/h (1 Bft) O-SO 112 0 min 2,9 C 4,1 C 3,1 km/h (1 Bft)
01.03.2021 23:10 4,1 C 0 % 92 % 1033,6 hPa 0,0 l/m 1,4 km/h (1 Bft) O-SO 112 0 min 2,9 C 4,1 C 2,9 km/h (1 Bft)
01.03.2021 23:05 4,1 C 0 % 92 % 1033,6 hPa 0,0 l/m 1,6 km/h (1 Bft) O 90 0 min 2,9 C 4,1 C 0,0 km/h (0 Bft)
01.03.2021 23:00 4,1 C 0 % 92 % 1033,6 hPa 0,0 l/m 2,3 km/h (1 Bft) NO 45 0 min 2,9 C 4,1 C 3,1 km/h (1 Bft)
01.03.2021 22:55 4,1 C 0 % 92 % 1033,6 hPa 0,0 l/m 1,6 km/h (1 Bft) SO 135 0 min 2,9 C 4,1 C 1,6 km/h (1 Bft)
01.03.2021 22:50 4,3 C 0 % 92 % 1033,6 hPa 0,0 l/m 0,8 km/h (0 Bft) O 90 0 min 3,1 C 4,3 C 5,8 km/h (2 Bft)
01.03.2021 22:45 4,2 C 1 % 92 % 1033,6 hPa 0,0 l/m 0,3 km/h (0 Bft) N 360 0 min 3,0 C 4,2 C 0,0 km/h (0 Bft)
01.03.2021 22:40 4,3 C 0 % 92 % 1033,4 hPa 0,0 l/m 0,6 km/h (0 Bft) O-NO 67 0 min 3,1 C 4,3 C 3,1 km/h (1 Bft)
01.03.2021 22:35 4,3 C 0 % 92 % 1033,4 hPa 0,0 l/m 0,3 km/h (0 Bft) O-NO 67 0 min 3,1 C 4,3 C 0,0 km/h (0 Bft)
01.03.2021 22:30 4,3 C 0 % 92 % 1033,4 hPa 0,0 l/m 0,5 km/h (0 Bft) NO 45 0 min 3,1 C 4,3 C 0,0 km/h (0 Bft)
01.03.2021 22:25 4,3 C 0 % 92 % 1033,4 hPa 0,0 l/m 0,8 km/h (0 Bft) O-NO 67 0 min 3,1 C 4,3 C 0,0 km/h (0 Bft)
01.03.2021 22:20 4,2 C 0 % 92 % 1033,7 hPa 0,0 l/m 1,3 km/h (1 Bft) O-SO 112 0 min 3,0 C 4,2 C 3,1 km/h (1 Bft)
01.03.2021 22:15 4,3 C 0 % 92 % 1033,7 hPa 0,0 l/m 1,3 km/h (1 Bft) NO 45 0 min 3,1 C 4,3 C 0,0 km/h (0 Bft)
01.03.2021 22:10 4,3 C 0 % 92 % 1033,7 hPa 0,0 l/m 2,1 km/h (1 Bft) O 90 0 min 3,1 C 4,3 C 2,9 km/h (1 Bft)
01.03.2021 22:05 4,3 C 0 % 92 % 1033,7 hPa 0,0 l/m 2,3 km/h (1 Bft) S-SW 202 0 min 3,1 C 4,3 C 2,6 km/h (1 Bft)
01.03.2021 22:00 4,3 C 0 % 92 % 1033,6 hPa 0,0 l/m 3,1 km/h (1 Bft) O-SO 112 0 min 3,1 C 4,3 C 4,2 km/h (1 Bft)
01.03.2021 21:55 4,3 C 0 % 92 % 1033,6 hPa 0,0 l/m 2,6 km/h (1 Bft) NO 45 0 min 3,1 C 4,3 C 2,1 km/h (1 Bft)
01.03.2021 21:50 4,3 C 0 % 92 % 1033,6 hPa 0,0 l/m 1,8 km/h (1 Bft) O-NO 67 0 min 3,1 C 4,3 C 3,4 km/h (1 Bft)
01.03.2021 21:45 4,3 C 0 % 91 % 1033,6 hPa 0,0 l/m 1,0 km/h (0 Bft) O-NO 67 0 min 3,0 C 4,3 C 4,7 km/h (1 Bft)
01.03.2021 21:40 4,2 C 0 % 92 % 1033,8 hPa 0,0 l/m 0,5 km/h (0 Bft) O-NO 67 0 min 3,0 C 4,2 C 0,0 km/h (0 Bft)
01.03.2021 21:35 4,2 C 0 % 92 % 1033,8 hPa 0,0 l/m 1,1 km/h (1 Bft) NO 45 0 min 3,0 C 4,2 C 2,1 km/h (1 Bft)
01.03.2021 21:30 4,3 C 0 % 91 % 1033,8 hPa 0,0 l/m 2,1 km/h (1 Bft) N-NO 22 0 min 3,0 C 4,3 C 0,0 km/h (0 Bft)
01.03.2021 21:25 4,3 C 0 % 92 % 1033,8 hPa 0,0 l/m 2,1 km/h (1 Bft) O-NO 67 0 min 3,1 C 4,3 C 3,7 km/h (1 Bft)
01.03.2021 21:20 4,3 C 0 % 91 % 1033,6 hPa 0,0 l/m 1,1 km/h (1 Bft) NO 45 0 min 3,0 C 4,3 C 3,2 km/h (1 Bft)
01.03.2021 21:15 4,3 C 0 % 91 % 1033,6 hPa 0,0 l/m 0,5 km/h (0 Bft) S-SO 157 0 min 3,0 C 4,3 C 0,0 km/h (0 Bft)
01.03.2021 21:10 4,1 C 0 % 92 % 1033,6 hPa 0,0 l/m 1,9 km/h (1 Bft) O-SO 112 0 min 2,9 C 4,1 C 1,8 km/h (1 Bft)
01.03.2021 21:05 4,2 C 0 % 91 % 1033,6 hPa 0,0 l/m 2,3 km/h (1 Bft) O 90 0 min 2,9 C 4,2 C 0,0 km/h (0 Bft)
01.03.2021 21:00 4,2 C 0 % 91 % 1033,8 hPa 0,0 l/m 2,6 km/h (1 Bft) NO 45 0 min 2,9 C 4,2 C 4,0 km/h (1 Bft)
_ Min-Zeit 04:45 - 14:30 17:25 - 00:25 - - - 04:10 04:45 21:05
Minimum _ 2,6 C - 72 % 1030,8 hPa - 0,0 km/h (0 Bft) - - - 1,5 C 2,6 C 0,0 km/h (0 Bft)
_ Max-Zeit 16:00 14:20 04:25 21:00 21:00 22:00 - - 12:45 16:10 16:00 04:15
Maximum _ 10,9 C 90 % 93 % 1033,8 hPa 0,0 l/m 3,1 km/h
O-SO (1 Bft)
- - 5 min 6,8 C 10,9 C 6,6 km/h
N-NO (2 Bft)
Durchschnitt _ 5,3 C #4:50 h 87 % 1032,7 hPa #0,0 l/m 1,1 km/h (0 Bft) N-NO - #4:50 h 3,3 C 5,3 C 1,6 km/h (1 Bft)